Flag Weather past 2 weeks in Brattleboro, Vermont, U.S.A.

Now
30 °F

Partly sunny.


Feels Like: 21 °F
Forecast: 21 / 30 °F
Wind: 10 mph from Northwest

Location: Keene / Dillant

Current Time: Nov 21, 2014 at 2:21:01 PM

Latest Report: Nov 21, 2014 at 1:55 PM


Visibility: 10 mi

Pressure: 30.17 "Hg

Humidity: 40%

Dew point: 9 °F

Location of BrattleboroLocation

Historic Weather in Brattleboro — Graph

°F

Brattleboro temperature yesterday

Maximum temperature yesterday: 39 °F (at 10:55 AM)
Minimum temperature yesterday: 21 °F (at 11:15 PM)
Average temperature yesterday: 31 °F

Past Weeks' High & Low Weather Summary

 TemperatureHumidityPressure
High63 °F (Nov 12, 11:55 AM)100% (Nov 14, 4:15 AM)30.35 "Hg (Nov 14, 4:15 AM)
Low19 °F (Nov 15, 11:35 PM)29% (Nov 19, 3:35 PM)29.44 "Hg (Nov 17, 9:15 PM)
Average36 °F62%29.94 "Hg
* Reported Nov 6 1:35 PM — Nov 21 1:15 PM, Brattleboro, Weather by CustomWeather, © 2014

Note: Actual official high and low records may vary slightly from our data, if they occured in-between our weather recording intervals... More about our weather records

Advertising

Brattleboro weather history for previous 24 hours

 ConditionsComfort  
Time TempWeatherWind HumidityBarometerVisibility
1:15 PM
Nov 21
28 °FScattered clouds.13 mph43%30.17 "Hg10 mi
12:55 PM28 °FPartly sunny.18 mph43%30.16 "Hg10 mi
12:35 PM30 °FBroken clouds.12 mph40%30.15 "Hg10 mi
12:15 PM30 °FBroken clouds.9 mph43%30.15 "Hg10 mi
11:55 AM28 °FScattered clouds.15 mph47%30.14 "Hg10 mi
11:35 AM28 °FPassing clouds.17 mph47%30.13 "Hg10 mi
11:15 AM28 °FPassing clouds.14 mph47%30.13 "Hg10 mi
10:55 AM28 °FBroken clouds.7 mph47%30.13 "Hg10 mi
10:35 AM28 °FMostly cloudy.8 mph51%30.13 "Hg10 mi
9:55 AM28 °FMostly cloudy.8 mph47%30.11 "Hg10 mi
9:35 AM28 °FBroken clouds.9 mph47%30.10 "Hg10 mi
9:15 AM28 °FSunny.5 mph47%30.09 "Hg10 mi
8:55 AM27 °FSunny.6 mph54%30.08 "Hg10 mi
8:35 AM27 °FSunny.7 mph54%30.08 "Hg10 mi
7:55 AM25 °FSunny.6 mph59%30.06 "Hg10 mi
7:35 AM21 °FSunny.6 mph68%30.05 "Hg10 mi
7:15 AM23 °FPartly sunny.6 mph63%30.04 "Hg7 mi
6:55 AM23 °FPartly sunny.3 mph58%30.03 "Hg10 mi
6:35 AM25 °FPassing clouds.3 mph59%30.02 "Hg10 mi
6:15 AM23 °FClear.8 mph58%30.00 "Hg10 mi
5:55 AM23 °FClear.6 mph58%29.99 "Hg10 mi
5:35 AM25 °FClear.No wind59%29.99 "Hg10 mi
4:55 AM25 °FPassing clouds.No wind59%29.97 "Hg10 mi
4:35 AM23 °FPassing clouds.3 mph58%29.97 "Hg10 mi
4:15 AM25 °FPassing clouds.No wind59%29.95 "Hg10 mi
3:55 AM25 °FClear.No wind59%29.94 "Hg10 mi
3:35 AM25 °FClear.3 mph59%29.94 "Hg10 mi
3:15 AM23 °FClear.No wind58%29.93 "Hg10 mi
2:55 AM25 °FClear.3 mph54%29.93 "Hg10 mi
2:35 AM27 °FClear.6 mph50%29.93 "Hg10 mi
2:15 AM27 °FPassing clouds.7 mph54%29.93 "Hg10 mi
1:55 AM25 °FPassing clouds.5 mph59%29.93 "Hg10 mi
1:35 AM25 °FPassing clouds.No wind59%29.93 "Hg10 mi
1:15 AM27 °FPassing clouds.5 mph54%29.92 "Hg10 mi
12:55 AM27 °FPassing clouds.3 mph59%29.92 "Hg10 mi
12:35 AM25 °FPassing clouds.6 mph63%29.92 "Hg10 mi
12:15 AM25 °FPassing clouds.No wind69%29.92 "Hg10 mi
11:55 PM
Nov 20
25 °FPassing clouds.6 mph63%29.91 "Hg10 mi
11:35 PM23 °FPassing clouds.5 mph74%29.91 "Hg10 mi
11:15 PM21 °FClear.3 mph80%29.91 "Hg10 mi
10:55 PM23 °FClear.5 mph74%29.90 "Hg10 mi
10:35 PM25 °FClear.No wind63%29.89 "Hg10 mi
10:15 PM25 °FClear.3 mph63%29.89 "Hg10 mi
9:55 PM27 °FClear.No wind59%29.89 "Hg10 mi
9:35 PM27 °FClear.No wind64%29.89 "Hg10 mi
9:15 PM27 °FClear.No wind59%29.89 "Hg10 mi
8:55 PM28 °FClear.No wind59%29.88 "Hg10 mi
8:35 PM28 °FClear.5 mph55%29.88 "Hg10 mi
8:15 PM30 °FClear.3 mph55%29.87 "Hg10 mi
7:55 PM30 °FClear.No wind64%29.88 "Hg10 mi
7:35 PM30 °FPassing clouds.No wind64%29.88 "Hg10 mi
7:15 PM30 °FPassing clouds.No wind64%29.87 "Hg10 mi
6:55 PM30 °FPassing clouds.5 mph59%29.86 "Hg10 mi
6:35 PM32 °FPassing clouds.7 mph55%29.86 "Hg10 mi
6:15 PM32 °FPassing clouds.3 mph60%29.85 "Hg10 mi
5:55 PM34 °FPassing clouds.8 mph51%29.84 "Hg10 mi
5:35 PM34 °FPassing clouds.9 mph51%29.83 "Hg10 mi
5:15 PM34 °FPassing clouds.3 mph48%29.82 "Hg10 mi
4:55 PM34 °FPassing clouds.6 mph51%29.81 "Hg10 mi
4:35 PM34 °FPassing clouds.5 mph51%29.80 "Hg10 mi
3:55 PM36 °FScattered clouds.7 mph48%29.79 "Hg10 mi
3:35 PM36 °FPartly sunny.3 mph48%29.78 "Hg10 mi
3:15 PM37 °FPartly sunny.12 mph41%29.78 "Hg10 mi
2:55 PM37 °FPartly sunny.8 mph41%29.77 "Hg10 mi
2:35 PM37 °FPartly sunny.10 mph38%29.76 "Hg10 mi
2:15 PM37 °FPartly sunny.15 mph38%29.75 "Hg10 mi
Weather by CustomWeather, © 2014

See weather overviewHow to use our weather pages